Rickenbacker, OH

10:29 AM EST on December 17, 2017 (GMT -0500)
Rickenbacker International

Weather History for KLCK - January, 2013

Change the Weather History Date:

Wednesday, January 16, 2013

  Actual Average Record
Temperature  
Mean Temperature 34 °F -  
Max Temperature 37 °F 33 °F 51 °F (2006)
Min Temperature 32 °F 19 °F -12 °F (2009)
Degree Days  
Heating Degree Days 30    
Moisture  
Dew Point 26 °F    
Average Humidity 74    
Maximum Humidity 85    
Minimum Humidity 65    
Precipitation  
Precipitation 0.00 in - - ()
Sea Level Pressure  
Sea Level Pressure 30.00 in    
Wind  
Wind Speed 5 mph (SW)    
Max Wind Speed 14 mph    
Max Gust Speed -    
Visibility 9 miles    
Events Snow    
Averages and records for this station are not official NWS values.
T = Trace of Precipitation, MM = Missing Value Source: NWS Daily Summary

Daily Weather History Graph

Daily Weather History Graph

Search for Another Location

Airport or City:

Trip Planner

Search our weather history database for the weather conditions in past years. The results will help you decide how hot, cold, wet, or windy it might be!

Date:

Astronomy

Jan. 16, 2013 Rise Set
Actual Time 7:50 AM EST 5:32 PM EST
Civil Twilight 7:21 AM EST 6:02 PM EST
Nautical Twilight 6:47 AM EST 6:35 PM EST
Astronomical Twilight 6:15 AM EST 7:08 PM EST
Moon 10:27 AM EST (1/16) 11:22 PM EST (1/16)
Length of Visible Light 10h 41m
Length of Day
9h 42m
Waxing Crescent, 28% of the Moon is Illuminated
Jan 16
Waxing Crescent
Jan 18
First Quarter
Jan 26
Full
Feb 3
Last Quarter
Feb 10
New

Hourly Weather History & Observations

Time (EST) Temp. Windchill Dew Point Humidity Pressure Visibility Wind Dir Wind Speed Gust Speed Precip Events Conditions
12:15 AM 33.4 °F 28.1 °F 22.6 °F 65% 30.08 in 10.0 mi NNE 5.8 mph - N/A   Overcast
12:35 AM 33.4 °F 30.4 °F 22.6 °F 65% 30.06 in 10.0 mi NE 3.5 mph - N/A   Overcast
1:15 AM 33.4 °F 29.1 °F 23.2 °F 66% 30.03 in 10.0 mi ENE 4.6 mph - N/A   Overcast
1:35 AM 32.9 °F 27.5 °F 24.3 °F 71% 30.03 in 5.0 mi NE 5.8 mph - N/A Snow Light Snow
1:55 AM 32.4 °F 29.1 °F 24.8 °F 74% 30.02 in 10.0 mi East 3.5 mph - N/A   Overcast
2:15 AM 32.4 °F - 25.3 °F 75% 30.03 in 10.0 mi Calm Calm - N/A   Overcast
2:35 AM 32.4 °F - 25.0 °F 74% 30.04 in 10.0 mi Calm Calm - N/A   Overcast
2:55 AM 32.7 °F 29.6 °F 25.2 °F 74% 30.03 in 10.0 mi NE 3.5 mph - N/A   Overcast
3:15 AM 32.9 °F - 25.3 °F 74% 30.03 in 10.0 mi Calm Calm - N/A   Overcast
3:35 AM 32.9 °F - 25.3 °F 74% 30.04 in 10.0 mi Calm Calm - N/A   Overcast
3:55 AM 32.9 °F 29.8 °F 25.5 °F 74% 30.01 in 10.0 mi East 3.5 mph - N/A   Overcast
4:15 AM 32.9 °F - 25.7 °F 75% 30.00 in 10.0 mi Calm Calm - N/A   Overcast
4:35 AM 32.9 °F - 25.9 °F 75% 29.98 in 10.0 mi Calm Calm - N/A   Overcast
4:55 AM 32.9 °F - 25.9 °F 75% 29.97 in 10.0 mi Calm Calm - N/A   Overcast
5:15 AM 32.9 °F - 26.1 °F 76% 29.98 in 10.0 mi Calm Calm - N/A   Overcast
5:35 AM 33.3 °F 27.9 °F 24.8 °F 71% 29.98 in 10.0 mi NNW 5.8 mph - N/A   Overcast
5:55 AM 33.4 °F - 23.7 °F 68% 29.98 in 10.0 mi Calm Calm - N/A   Overcast
6:15 AM 33.4 °F - 23.7 °F 68% 29.96 in 10.0 mi Calm Calm - N/A   Overcast
6:35 AM 33.6 °F 30.6 °F 23.7 °F 67% 29.97 in 10.0 mi NNW 3.5 mph - N/A   Overcast
6:55 AM 33.8 °F - 23.7 °F 67% 29.96 in 10.0 mi Calm Calm - N/A   Overcast
7:35 AM 33.8 °F - 23.7 °F 67% 29.96 in 10.0 mi Calm Calm - N/A   Overcast
7:55 AM 33.8 °F - 24.1 °F 68% 29.96 in 10.0 mi Calm Calm - N/A   Overcast
8:15 AM 33.8 °F 29.6 °F 24.1 °F 68% 29.98 in 10.0 mi WNW 4.6 mph - N/A   Overcast
8:35 AM 33.8 °F 30.8 °F 24.4 °F 69% 29.98 in 10.0 mi NW 3.5 mph - N/A   Overcast
8:55 AM 34.0 °F - 24.8 °F 69% 29.98 in 10.0 mi Calm Calm - N/A   Overcast
9:15 AM 34.0 °F - 25.9 °F 72% 29.98 in 10.0 mi Calm Calm - N/A   Overcast
9:35 AM 34.0 °F 29.8 °F 26.6 °F 74% 30.00 in 10.0 mi WSW 4.6 mph - N/A   Overcast
9:55 AM 34.0 °F 28.0 °F 26.8 °F 75% 30.01 in 10.0 mi WSW 6.9 mph - N/A   Overcast
10:15 AM 33.8 °F 28.6 °F 27.1 °F 77% 30.01 in 10.0 mi WSW 5.8 mph - N/A   Overcast
10:35 AM 34.2 °F 29.0 °F 27.1 °F 75% 30.01 in 10.0 mi SW 5.8 mph - N/A   Overcast
10:55 AM 34.2 °F 28.2 °F 27.0 °F 75% 30.01 in 10.0 mi WSW 6.9 mph - N/A   Overcast
11:15 AM 34.3 °F 29.2 °F 27.1 °F 75% 29.99 in 10.0 mi SW 5.8 mph - N/A   Overcast
11:35 AM 34.3 °F 28.4 °F 27.1 °F 75% 29.99 in 7.0 mi WSW 6.9 mph - N/A   Overcast
11:55 AM 34.7 °F 27.5 °F 27.3 °F 74% 29.99 in 10.0 mi WSW 9.2 mph - N/A   Overcast
12:15 PM 34.7 °F 26.9 °F 27.1 °F 74% 29.98 in 10.0 mi West 10.4 mph - N/A   Overcast
12:35 PM 34.9 °F 28.3 °F 26.8 °F 72% 29.97 in 10.0 mi West 8.1 mph - N/A   Overcast
12:55 PM 35.4 °F 29.0 °F 27.0 °F 71% 29.96 in 10.0 mi WSW 8.1 mph - N/A   Overcast
1:15 PM 35.6 °F 29.2 °F 26.6 °F 70% 29.95 in 10.0 mi WSW 8.1 mph - N/A   Overcast
1:35 PM 35.8 °F 28.8 °F 26.4 °F 69% 29.94 in 10.0 mi West 9.2 mph - N/A   Overcast
1:55 PM 36.3 °F 28.4 °F 26.4 °F 67% 29.95 in 10.0 mi West 11.5 mph - N/A   Mostly Cloudy
2:15 PM 36.7 °F 28.9 °F 26.6 °F 67% 29.95 in 10.0 mi WSW 11.5 mph - N/A   Mostly Cloudy
2:35 PM 36.9 °F 29.6 °F 26.6 °F 66% 29.96 in 10.0 mi WSW 10.4 mph - N/A   Scattered Clouds
2:55 PM 37.2 °F 30.0 °F 26.6 °F 65% 29.97 in 10.0 mi WSW 10.4 mph - N/A   Clear
3:15 PM 37.4 °F 30.8 °F 26.6 °F 65% 29.97 in 10.0 mi WSW 9.2 mph - N/A   Clear
3:35 PM 37.0 °F 31.0 °F 27.0 °F 67% 29.97 in 10.0 mi SW 8.1 mph - N/A   Clear
3:55 PM 36.9 °F 28.7 °F 27.1 °F 68% 29.97 in 10.0 mi SSW 12.7 mph - N/A   Clear
4:15 PM 36.7 °F 29.9 °F 27.0 °F 68% 29.98 in 10.0 mi SW 9.2 mph - N/A   Clear
4:35 PM 36.5 °F 28.7 °F 27.1 °F 69% 29.99 in 10.0 mi SW 11.5 mph - N/A   Clear
4:55 PM 36.0 °F 27.5 °F 26.8 °F 69% 29.99 in 10.0 mi SSW 12.7 mph - N/A   Clear
5:15 PM 35.8 °F 27.3 °F 27.1 °F 71% 30.00 in 10.0 mi SSW 12.7 mph - N/A   Clear
5:35 PM 35.4 °F 27.8 °F 27.5 °F 73% 30.00 in 10.0 mi SSW 10.4 mph - N/A   Clear
5:55 PM 34.7 °F 26.9 °F 28.6 °F 78% 30.01 in 7.0 mi SSW 10.4 mph - N/A   Clear
6:15 PM 34.2 °F 26.2 °F 28.9 °F 81% 30.01 in 7.0 mi SSW 10.4 mph - N/A   Clear
6:35 PM 33.8 °F 24.3 °F 28.9 °F 82% 30.01 in 7.0 mi SSW 13.8 mph - N/A   Clear
6:55 PM 33.6 °F 26.2 °F 28.9 °F 83% 30.01 in 7.0 mi SSW 9.2 mph - N/A   Scattered Clouds
7:15 PM 33.3 °F 25.7 °F 28.8 °F 84% 30.02 in 7.0 mi SSW 9.2 mph - N/A   Scattered Clouds
7:35 PM 32.9 °F 24.7 °F 28.4 °F 84% 30.03 in 7.0 mi SSW 10.4 mph - N/A   Clear
7:55 PM 32.9 °F 26.7 °F 28.4 °F 84% 30.02 in 7.0 mi SW 6.9 mph - N/A   Scattered Clouds
8:15 PM 32.4 °F 24.6 °F 28.4 °F 85% 30.03 in 7.0 mi SSW 9.2 mph - N/A   Clear
8:35 PM 32.5 °F 24.2 °F 28.4 °F 85% 30.03 in 10.0 mi SSW 10.4 mph - N/A   Clear
8:55 PM 32.5 °F 24.2 °F 28.4 °F 85% 30.04 in 10.0 mi SW 10.4 mph - N/A   Clear
9:15 PM 32.5 °F 23.7 °F 28.4 °F 85% 30.04 in 7.0 mi SW 11.5 mph - N/A   Clear
9:35 PM 32.4 °F 24.6 °F 28.4 °F 85% 30.04 in 7.0 mi SW 9.2 mph - N/A   Clear
9:55 PM 32.4 °F 23.5 °F 28.4 °F 85% 30.03 in 7.0 mi SW 11.5 mph - N/A   Clear
10:15 PM 32.4 °F 24.0 °F 28.2 °F 85% 30.04 in 7.0 mi SW 10.4 mph - N/A   Clear
10:35 PM 32.4 °F 24.0 °F 28.0 °F 84% 30.03 in 10.0 mi SW 10.4 mph - N/A   Clear
10:55 PM 32.4 °F 24.6 °F 27.9 °F 83% 30.03 in 10.0 mi SW 9.2 mph - N/A   Clear
11:15 PM 32.5 °F 24.8 °F 27.9 °F 83% 30.04 in 10.0 mi SW 9.2 mph - N/A   Clear
11:35 PM 32.4 °F 24.6 °F 27.9 °F 83% 30.06 in 10.0 mi SW 9.2 mph - N/A   Clear
11:55 PM 32.4 °F 25.3 °F 27.7 °F 83% 30.06 in 10.0 mi SW 8.1 mph - N/A   Clear